NVA1003 SAWH-SACO

Flight info

Callsign NVA1003
Flight time N/A
Altitude 35000
Route GRA UT108 GUDUX/N0449F370 UT700 SIMES
Aircraft A319/M-SDE3FGHIRWY/LB1

Departure

Time 2026-04-27 19:43
Airport Ushuaia - Malvinas Argentinas International Airport (SAWH)

Arrival

Time N/A
Airport Ingeniero Aeronáutico Ambrosio L.V. Taravella International Airport (SACO)
Time Latitude Longitude Altitude Speed Heading
2026-04-27 19:29 -54.84016 -68.31185 107 ft 0 kts 346°
2026-04-27 19:33 -54.84017 -68.31185 107 ft 0 kts 346°
2026-04-27 19:34 -54.84031 -68.31183 107 ft 2 kts 356°
2026-04-27 19:34 -54.84047 -68.31180 107 ft 2 kts 353°
2026-04-27 19:34 -54.84061 -68.31177 107 ft 2 kts 354°
2026-04-27 19:34 -54.84077 -68.31175 107 ft 2 kts 354°
2026-04-27 19:35 -54.84092 -68.31172 107 ft 2 kts 354°
2026-04-27 19:35 -54.84104 -68.31170 107 ft 0 kts 354°
2026-04-27 19:35 -54.84110 -68.31168 107 ft 0 kts 347°
2026-04-27 19:37 -54.84105 -68.31169 107 ft 1 kts
2026-04-27 19:37 -54.84100 -68.31148 107 ft 2 kts 76°
2026-04-27 19:38 -54.84096 -68.31100 107 ft 4 kts 82°
2026-04-27 19:38 -54.84094 -68.31031 107 ft 6 kts 93°
2026-04-27 19:38 -54.84126 -68.30983 107 ft 6 kts 166°
2026-04-27 19:38 -54.84180 -68.30975 107 ft 8 kts 177°
2026-04-27 19:39 -54.84248 -68.30971 107 ft 10 kts 177°
2026-04-27 19:39 -54.84328 -68.30965 107 ft 12 kts 175°
2026-04-27 19:39 -54.84378 -68.30888 108 ft 9 kts 105°
2026-04-27 19:39 -54.84380 -68.30747 111 ft 16 kts 84°
2026-04-27 19:40 -54.84369 -68.30482 113 ft 27 kts 86°
2026-04-27 19:40 -54.84353 -68.30084 113 ft 38 kts 86°
2026-04-27 19:40 -54.84334 -68.29595 113 ft 39 kts 86°
2026-04-27 19:40 -54.84319 -68.29190 111 ft 30 kts 86°
2026-04-27 19:41 -54.84306 -68.28816 107 ft 30 kts 86°
2026-04-27 19:41 -54.84288 -68.28436 104 ft 31 kts 85°
2026-04-27 19:41 -54.84275 -68.28067 99 ft 29 kts 87°
2026-04-27 19:41 -54.84261 -68.27718 91 ft 27 kts 84°
2026-04-27 19:42 -54.84226 -68.27444 85 ft 13 kts 68°
2026-04-27 19:42 -54.84211 -68.27269 82 ft 13 kts 96°
2026-04-27 19:42 -54.84244 -68.27290 83 ft 9 kts 261°
2026-04-27 19:42 -54.84256 -68.27582 88 ft 54 kts 266°
2026-04-27 19:43 -54.84298 -68.28674 106 ft 123 kts 265°
2026-04-27 19:43 -54.84380 -68.30514 268 ft 167 kts 263°
2026-04-27 19:43 -54.84488 -68.32415 1239 ft 151 kts 264°
2026-04-27 19:43 -54.84571 -68.34160 1949 ft 146 kts 265°
2026-04-27 19:44 -54.84849 -68.35948 2369 ft 161 kts 236°
2026-04-27 19:44 -54.85793 -68.37045 2912 ft 175 kts 198°
2026-04-27 19:44 -54.87034 -68.36910 3561 ft 187 kts 162°
2026-04-27 19:44 -54.88073 -68.35461 4200 ft 199 kts 127°
2026-04-27 19:45 -54.88517 -68.33077 4584 ft 222 kts 89°
2026-04-27 19:45 -54.88305 -68.30256 4913 ft 245 kts 77°
2026-04-27 19:45 -54.87927 -68.27232 5421 ft 259 kts 75°
2026-04-27 19:45 -54.87508 -68.24127 6112 ft 265 kts 75°
2026-04-27 19:46 -54.87083 -68.20978 6804 ft 269 kts 75°
2026-04-27 19:46 -54.86661 -68.17808 7457 ft 274 kts 75°
2026-04-27 19:46 -54.86230 -68.14505 8109 ft 280 kts 76°
2026-04-27 19:46 -54.86098 -68.11062 8569 ft 294 kts 99°
2026-04-27 19:47 -54.86588 -68.07536 8944 ft 309 kts 111°
2026-04-27 19:47 -54.87311 -68.03867 9321 ft 326 kts 112°
2026-04-27 19:47 -54.88049 -68.00006 9870 ft 337 kts 110°
2026-04-27 19:47 -54.88734 -67.96048 10223 ft 354 kts 108°
2026-04-27 19:48 -54.89411 -67.91821 10536 ft 373 kts 107°
2026-04-27 19:48 -54.90010 -67.87245 10829 ft 393 kts 96°
2026-04-27 19:48 -54.89698 -67.82449 11252 ft 400 kts 66°
2026-04-27 19:48 -54.88277 -67.78378 11974 ft 385 kts 38°
2026-04-27 19:49 -54.86118 -67.75809 12729 ft 363 kts 12°
2026-04-27 19:49 -54.83726 -67.74957 13390 ft 343 kts 350°
2026-04-27 19:49 -54.81411 -67.75637 14020 ft 327 kts 330°
2026-04-27 19:49 -54.79454 -67.77495 14646 ft 318 kts 318°
2026-04-27 19:50 -54.77551 -67.79574 15108 ft 333 kts 325°
2026-04-27 19:50 -54.75242 -67.80757 15312 ft 367 kts 346°
2026-04-27 19:50 -54.72563 -67.80767 15856 ft 380 kts 353°
2026-04-27 19:50 -54.69912 -67.80593 16466 ft 383 kts 353°
2026-04-27 19:51 -54.67186 -67.80375 17018 ft 388 kts 354°
2026-04-27 19:51 -54.64462 -67.80139 17743 ft 386 kts 354°
2026-04-27 19:51 -54.61779 -67.79897 18449 ft 384 kts 354°
2026-04-27 19:51 -54.59045 -67.79658 18957 ft 388 kts 354°
2026-04-27 19:52 -54.56318 -67.79422 19449 ft 391 kts 354°
2026-04-27 19:52 -54.54464 -67.79259 19773 ft 394 kts 354°
2026-04-27 19:52 -54.50794 -67.78948 20391 ft 398 kts 354°
2026-04-27 19:52 -54.47961 -67.78765 20867 ft 400 kts 353°
2026-04-27 19:53 -54.42276 -67.78431 21743 ft 407 kts 353°
2026-04-27 19:53 -54.39370 -67.78259 22172 ft 410 kts 354°
2026-04-27 19:53 -54.36482 -67.78086 22590 ft 413 kts 354°
2026-04-27 19:54 -54.33524 -67.77908 23006 ft 416 kts 354°
2026-04-27 19:54 -54.30593 -67.77732 23384 ft 419 kts 354°
2026-04-27 19:54 -54.27632 -67.77555 23780 ft 422 kts 354°
2026-04-27 19:54 -54.24619 -67.77374 24173 ft 424 kts 354°
2026-04-27 19:55 -54.21631 -67.77195 24527 ft 427 kts 354°
2026-04-27 19:55 -54.18618 -67.77014 24874 ft 430 kts 354°
2026-04-27 19:55 -54.15550 -67.76830 25228 ft 432 kts 354°
2026-04-27 19:55 -54.12470 -67.76648 25571 ft 435 kts 354°
2026-04-27 19:56 -54.09391 -67.76465 25889 ft 438 kts 354°
2026-04-27 19:56 -54.06268 -67.76279 26222 ft 440 kts 354°
2026-04-27 19:56 -54.03188 -67.76099 26550 ft 442 kts 354°
2026-04-27 19:56 -54.00042 -67.75914 26850 ft 444 kts 354°
2026-04-27 19:57 -53.96869 -67.75729 27158 ft 447 kts 354°
2026-04-27 19:57 -53.93708 -67.75542 27460 ft 449 kts 354°
2026-04-27 19:57 -53.90532 -67.75356 27722 ft 452 kts 354°
2026-04-27 19:57 -53.87341 -67.75168 27992 ft 454 kts 354°
2026-04-27 19:58 -53.84158 -67.74976 28304 ft 455 kts 354°
2026-04-27 19:58 -53.80931 -67.74644 28669 ft 458 kts 358°
2026-04-27 19:58 -53.77700 -67.73986 29045 ft 460 kts
2026-04-27 19:58 -53.74455 -67.72977 29409 ft 463 kts
2026-04-27 19:59 -53.71281 -67.71637 29759 ft 466 kts
2026-04-27 19:59 -53.68127 -67.70127 30103 ft 465 kts
2026-04-27 19:59 -53.64956 -67.68613 30422 ft 465 kts
2026-04-27 19:59 -53.61803 -67.67114 30721 ft 465 kts
2026-04-27 20:00 -53.58607 -67.65600 31053 ft 463 kts
2026-04-27 20:00 -53.55462 -67.64114 31366 ft 462 kts
2026-04-27 20:00 -53.52338 -67.62642 31654 ft 462 kts
2026-04-27 20:00 -53.49213 -67.61171 31935 ft 461 kts
2026-04-27 20:01 -53.46017 -67.59671 32205 ft 461 kts
2026-04-27 20:01 -53.42883 -67.58201 32482 ft 460 kts
2026-04-27 20:01 -53.39753 -67.56736 32744 ft 460 kts
2026-04-27 20:01 -53.36626 -67.55277 32935 ft 461 kts
2026-04-27 20:02 -53.33481 -67.53812 33106 ft 462 kts
2026-04-27 20:02 -53.30333 -67.52347 33305 ft 463 kts
2026-04-27 20:02 -53.27163 -67.50874 33494 ft 464 kts
2026-04-27 20:02 -53.23960 -67.49387 33656 ft 465 kts
2026-04-27 20:03 -53.20796 -67.47916 33822 ft 466 kts
2026-04-27 20:03 -53.17661 -67.46466 33972 ft 467 kts
2026-04-27 20:03 -53.14450 -67.44981 34125 ft 468 kts
2026-04-27 20:03 -53.11220 -67.43491 34300 ft 468 kts
2026-04-27 20:04 -53.08028 -67.42024 34445 ft 469 kts
2026-04-27 20:04 -53.04834 -67.40563 34518 ft 472 kts
2026-04-27 20:04 -52.99465 -67.38107 34528 ft 474 kts 10°
2026-04-27 20:05 -52.91874 -67.34629 34529 ft 474 kts 10°
2026-04-27 20:05 -52.85407 -67.31647 34529 ft 473 kts 10°
2026-04-27 20:06 -52.78998 -67.28731 34529 ft 474 kts
2026-04-27 20:06 -52.72459 -67.26228 34529 ft 470 kts
2026-04-27 20:07 -52.65863 -67.24586 34528 ft 470 kts
2026-04-27 20:07 -52.59314 -67.22988 34531 ft 469 kts
2026-04-27 20:08 -52.52692 -67.21376 34528 ft 469 kts
2026-04-27 20:08 -52.46100 -67.19775 34530 ft 470 kts
2026-04-27 20:09 -52.39570 -67.18192 34530 ft 470 kts
2026-04-27 20:09 -52.32944 -67.16590 34530 ft 470 kts
2026-04-27 20:10 -52.26379 -67.15009 34530 ft 470 kts
2026-04-27 20:10 -52.19791 -67.13425 34529 ft 471 kts
2026-04-27 20:11 -52.13171 -67.11839 34530 ft 470 kts
2026-04-27 20:11 -52.06574 -67.10265 34529 ft 471 kts
2026-04-27 20:12 -52.01098 -67.08963 34530 ft 471 kts
2026-04-27 20:12 -51.93383 -67.07134 34529 ft 471 kts
2026-04-27 20:13 -51.86740 -67.05566 34529 ft 471 kts
2026-04-27 20:13 -51.80164 -67.04022 34530 ft 471 kts
2026-04-27 20:14 -51.73517 -67.02460 34542 ft 472 kts
2026-04-27 20:14 -51.66929 -67.00904 34555 ft 472 kts
2026-04-27 20:15 -51.60310 -66.99348 34577 ft 471 kts
2026-04-27 20:15 -51.53678 -66.97800 34617 ft 471 kts
2026-04-27 20:16 -51.47049 -66.96260 34664 ft 471 kts
2026-04-27 20:16 -51.40478 -66.94737 34685 ft 471 kts
2026-04-27 20:17 -51.33877 -66.93212 34692 ft 471 kts
2026-04-27 20:17 -51.28381 -66.91946 34695 ft 472 kts
2026-04-27 20:18 -51.20606 -66.90159 34695 ft 471 kts
2026-04-27 20:18 -51.14015 -66.88650 34696 ft 471 kts
2026-04-27 20:19 -51.07421 -66.87144 34695 ft 472 kts
2026-04-27 20:19 -51.00789 -66.85634 34695 ft 471 kts
2026-04-27 20:20 -50.94159 -66.84133 34696 ft 471 kts
2026-04-27 20:20 -50.87553 -66.82639 34695 ft 471 kts
2026-04-27 20:21 -50.80931 -66.81144 34695 ft 471 kts
2026-04-27 20:21 -50.74299 -66.79650 34695 ft 471 kts
2026-04-27 20:22 -50.67728 -66.78175 34695 ft 471 kts
2026-04-27 20:22 -50.61084 -66.76688 34695 ft 471 kts
2026-04-27 20:23 -50.54431 -66.75204 34695 ft 472 kts
2026-04-27 20:23 -50.47853 -66.73740 34695 ft 472 kts
2026-04-27 20:24 -50.41216 -66.72266 34695 ft 472 kts
2026-04-27 20:24 -50.34581 -66.70798 34695 ft 472 kts
2026-04-27 20:25 -50.27985 -66.69343 34695 ft 472 kts
2026-04-27 20:25 -50.21371 -66.67887 34695 ft 472 kts
2026-04-27 20:26 -50.14731 -66.66431 34695 ft 472 kts
2026-04-27 20:26 -50.08127 -66.64986 34695 ft 472 kts
2026-04-27 20:27 -50.01500 -66.63541 34695 ft 472 kts
2026-04-27 20:27 -49.94864 -66.62097 34696 ft 472 kts
2026-04-27 20:28 -49.88259 -66.60664 34694 ft 472 kts
2026-04-27 20:28 -49.82690 -66.59460 34695 ft 472 kts
2026-04-27 20:29 -49.74976 -66.57797 34695 ft 472 kts
2026-04-27 20:29 -49.68388 -66.56380 34695 ft 472 kts
2026-04-27 20:30 -49.61717 -66.54948 34695 ft 471 kts
2026-04-27 20:30 -49.55119 -66.53535 34696 ft 471 kts
2026-04-27 20:31 -49.48509 -66.52124 34695 ft 471 kts
2026-04-27 20:31 -49.41877 -66.50710 34696 ft 471 kts
2026-04-27 20:32 -49.35283 -66.49309 34717 ft 471 kts
2026-04-27 20:32 -49.28653 -66.47905 34762 ft 471 kts
2026-04-27 20:33 -49.22044 -66.46509 34806 ft 471 kts
2026-04-27 20:33 -49.15401 -66.45110 34825 ft 471 kts
2026-04-27 20:34 -49.08804 -66.43726 34830 ft 471 kts
2026-04-27 20:34 -49.02150 -66.42340 34832 ft 472 kts
2026-04-27 20:35 -48.95513 -66.40957 34832 ft 473 kts
2026-04-27 20:35 -48.88877 -66.39569 34831 ft 473 kts
2026-04-27 20:36 -48.82220 -66.38185 34832 ft 473 kts
2026-04-27 20:36 -48.75570 -66.36809 34832 ft 473 kts
2026-04-27 20:37 -48.68918 -66.35436 34832 ft 473 kts
2026-04-27 20:37 -48.62267 -66.34048 34832 ft 473 kts
2026-04-27 20:38 -48.55617 -66.32655 34832 ft 473 kts
2026-04-27 20:38 -48.48992 -66.31288 34832 ft 473 kts
2026-04-27 20:39 -48.42336 -66.29926 34832 ft 473 kts
2026-04-27 20:39 -48.35709 -66.28576 34832 ft 473 kts
2026-04-27 20:40 -48.29092 -66.27232 34832 ft 473 kts
2026-04-27 20:40 -48.22440 -66.25884 34832 ft 473 kts
2026-04-27 20:41 -48.15796 -66.24546 34832 ft 473 kts
2026-04-27 20:41 -48.09183 -66.23219 34832 ft 473 kts
2026-04-27 20:42 -48.02519 -66.21880 34832 ft 473 kts
2026-04-27 20:42 -47.95918 -66.20545 34832 ft 473 kts
2026-04-27 20:43 -47.89256 -66.19209 34831 ft 473 kts
2026-04-27 20:43 -47.82602 -66.17885 34832 ft 473 kts
2026-04-27 20:44 -47.75991 -66.16574 34832 ft 473 kts
2026-04-27 20:44 -47.69318 -66.15256 34832 ft 473 kts
2026-04-27 20:45 -47.62660 -66.13943 34833 ft 473 kts
2026-04-27 20:45 -47.56010 -66.12625 34832 ft 472 kts
2026-04-27 20:46 -47.49382 -66.11308 34832 ft 472 kts
2026-04-27 20:46 -47.42755 -66.10001 34832 ft 473 kts
2026-04-27 20:47 -47.36136 -66.08701 34832 ft 473 kts
2026-04-27 20:47 -47.29476 -66.07399 34832 ft 472 kts
2026-04-27 20:48 -47.23917 -66.06313 34832 ft 472 kts
2026-04-27 20:48 -47.16164 -66.04804 34832 ft 473 kts
2026-04-27 20:49 -47.09560 -66.03522 34832 ft 472 kts
2026-04-27 20:49 -47.02887 -66.02230 34832 ft 472 kts
2026-04-27 20:50 -46.96230 -66.00952 34831 ft 477 kts
2026-04-27 20:50 -46.89519 -65.99664 34831 ft 480 kts
2026-04-27 20:51 -46.82747 -65.98363 34832 ft 481 kts
2026-04-27 20:51 -46.75946 -65.97056 34832 ft 481 kts
2026-04-27 20:52 -46.69223 -65.95768 34832 ft 481 kts
2026-04-27 20:52 -46.62437 -65.94473 34832 ft 481 kts
2026-04-27 20:53 -46.55641 -65.93181 34832 ft 481 kts
2026-04-27 20:53 -46.48924 -65.91908 34832 ft 481 kts
2026-04-27 20:54 -46.38749 -65.89985 34832 ft 481 kts
2026-04-27 20:55 -46.31957 -65.88706 34832 ft 481 kts
2026-04-27 20:55 -46.25175 -65.87434 34832 ft 481 kts
2026-04-27 20:56 -46.18426 -65.86111 34832 ft 481 kts
2026-04-27 20:56 -46.11671 -65.84626 34832 ft 482 kts
2026-04-27 20:57 -46.04927 -65.83147 34833 ft 481 kts
2026-04-27 20:57 -45.98170 -65.81683 34832 ft 481 kts
2026-04-27 20:58 -45.91410 -65.80228 34832 ft 482 kts
2026-04-27 20:58 -45.84694 -65.78791 34832 ft 481 kts
2026-04-27 20:59 -45.77911 -65.77345 34832 ft 482 kts
2026-04-27 20:59 -45.71139 -65.75902 34832 ft 482 kts
2026-04-27 21:00 -45.64370 -65.74461 34832 ft 482 kts
2026-04-27 21:00 -45.57643 -65.73032 34832 ft 481 kts
2026-04-27 21:01 -45.50899 -65.71603 34832 ft 481 kts
2026-04-27 21:01 -45.44130 -65.70174 34833 ft 481 kts
2026-04-27 21:02 -45.37397 -65.68755 34832 ft 481 kts
2026-04-27 21:02 -45.30650 -65.67336 34832 ft 481 kts
2026-04-27 21:03 -45.23883 -65.65918 34832 ft 481 kts
2026-04-27 21:03 -45.17159 -65.64511 34832 ft 481 kts
2026-04-27 21:04 -45.10384 -65.63099 34831 ft 481 kts
2026-04-27 21:04 -45.03604 -65.61698 34830 ft 488 kts
2026-04-27 21:05 -44.96716 -65.60272 34831 ft 491 kts
2026-04-27 21:05 -44.89826 -65.58835 34832 ft 492 kts
2026-04-27 21:06 -44.82935 -65.57404 34832 ft 492 kts
2026-04-27 21:06 -44.76057 -65.55986 34832 ft 492 kts
2026-04-27 21:07 -44.69143 -65.54563 34832 ft 492 kts
2026-04-27 21:07 -44.62207 -65.53140 34832 ft 493 kts
2026-04-27 21:08 -44.55319 -65.51729 34832 ft 492 kts
2026-04-27 21:08 -44.48413 -65.50317 34832 ft 492 kts
2026-04-27 21:09 -44.41555 -65.48920 34832 ft 493 kts
2026-04-27 21:09 -44.34617 -65.47509 34832 ft 492 kts
2026-04-27 21:10 -44.27694 -65.46104 34832 ft 493 kts
2026-04-27 21:10 -44.20835 -65.44717 34832 ft 492 kts
2026-04-27 21:11 -44.13904 -65.43317 34833 ft 492 kts
2026-04-27 21:11 -44.06996 -65.41925 34832 ft 493 kts
2026-04-27 21:12 -44.00118 -65.40543 34832 ft 493 kts
2026-04-27 21:12 -43.93169 -65.39150 34832 ft 492 kts
2026-04-27 21:13 -43.86259 -65.37772 34831 ft 492 kts
2026-04-27 21:13 -43.79402 -65.36410 34832 ft 492 kts
2026-04-27 21:14 -43.72463 -65.35031 34832 ft 493 kts
2026-04-27 21:14 -43.65593 -65.33640 34832 ft 492 kts
2026-04-27 21:15 -43.58696 -65.32254 34832 ft 492 kts
2026-04-27 21:15 -43.51788 -65.30885 34832 ft 493 kts
2026-04-27 21:16 -43.44903 -65.29527 34832 ft 492 kts
2026-04-27 21:16 -43.37995 -65.28172 34832 ft 492 kts
2026-04-27 21:17 -43.31105 -65.26825 34832 ft 493 kts
2026-04-27 21:17 -43.24218 -65.25481 34832 ft 492 kts
2026-04-27 21:18 -43.17301 -65.24174 34832 ft 492 kts
2026-04-27 21:18 -43.10373 -65.23045 34832 ft 492 kts
2026-04-27 21:19 -43.03440 -65.21935 34832 ft 492 kts
2026-04-27 21:19 -42.96541 -65.20830 34832 ft 493 kts
2026-04-27 21:20 -42.86174 -65.19167 34831 ft 493 kts
2026-04-27 21:20 -42.79234 -65.18050 34832 ft 493 kts
2026-04-27 21:21 -42.72289 -65.16933 34832 ft 493 kts
2026-04-27 21:21 -42.65395 -65.15829 34832 ft 493 kts
2026-04-27 21:22 -42.58474 -65.14723 34832 ft 493 kts
2026-04-27 21:22 -42.51512 -65.13613 34832 ft 493 kts
2026-04-27 21:23 -42.44616 -65.12515 34832 ft 493 kts
2026-04-27 21:23 -42.37685 -65.11417 34832 ft 493 kts
2026-04-27 21:24 -42.30790 -65.10324 34832 ft 493 kts
2026-04-27 21:24 -42.23842 -65.09225 34832 ft 493 kts
2026-04-27 21:25 -42.16892 -65.08130 34832 ft 493 kts
2026-04-27 21:25 -42.09950 -65.07037 34832 ft 493 kts
2026-04-27 21:26 -42.03046 -65.05953 34832 ft 493 kts
2026-04-27 21:26 -41.96098 -65.04865 34832 ft 493 kts
2026-04-27 21:27 -41.89207 -65.03788 34830 ft 493 kts
2026-04-27 21:27 -41.82228 -65.02706 34832 ft 492 kts
2026-04-27 21:28 -41.75350 -65.01640 34832 ft 492 kts
2026-04-27 21:28 -41.68379 -65.00558 34832 ft 492 kts
2026-04-27 21:29 -41.61461 -64.99487 34832 ft 492 kts
2026-04-27 21:29 -41.54576 -64.98422 34832 ft 492 kts
2026-04-27 21:30 -41.47657 -64.97354 34832 ft 492 kts
2026-04-27 21:30 -41.40759 -64.96291 34832 ft 492 kts
2026-04-27 21:31 -41.33808 -64.95222 34832 ft 492 kts
2026-04-27 21:31 -41.26890 -64.94162 34832 ft 491 kts
2026-04-27 21:32 -41.19974 -64.93105 34832 ft 491 kts
2026-04-27 21:32 -41.13115 -64.92058 34832 ft 491 kts
2026-04-27 21:33 -41.06148 -64.90999 34835 ft 489 kts
2026-04-27 21:33 -40.99308 -64.89961 34844 ft 486 kts
2026-04-27 21:34 -40.92537 -64.88934 34856 ft 483 kts
2026-04-27 21:34 -40.85694 -64.87898 34864 ft 483 kts
2026-04-27 21:35 -40.78952 -64.86884 34869 ft 482 kts
2026-04-27 21:35 -40.72132 -64.85859 34874 ft 481 kts
2026-04-27 21:36 -40.65433 -64.84853 34880 ft 480 kts
2026-04-27 21:36 -40.58704 -64.83843 34885 ft 479 kts
2026-04-27 21:37 -40.51957 -64.82833 34887 ft 478 kts
2026-04-27 21:37 -40.45295 -64.81838 34887 ft 477 kts
2026-04-27 21:38 -40.38604 -64.80840 34887 ft 477 kts
2026-04-27 21:38 -40.31839 -64.79833 34887 ft 476 kts
2026-04-27 21:39 -40.25162 -64.78841 34887 ft 476 kts
2026-04-27 21:39 -40.18454 -64.77848 34887 ft 476 kts
2026-04-27 21:40 -40.11745 -64.76859 34887 ft 476 kts
2026-04-27 21:40 -40.05161 -64.75887 34887 ft 476 kts
2026-04-27 21:41 -39.98471 -64.74903 34887 ft 476 kts
2026-04-27 21:41 -39.91777 -64.73926 34887 ft 476 kts
2026-04-27 21:42 -39.85086 -64.72959 34887 ft 476 kts
2026-04-27 21:42 -39.78414 -64.71995 34887 ft 476 kts
2026-04-27 21:43 -39.71757 -64.71019 34887 ft 476 kts
2026-04-27 21:43 -39.65058 -64.70036 34887 ft 476 kts
2026-04-27 21:44 -39.58337 -64.69054 34887 ft 476 kts
2026-04-27 21:44 -39.51626 -64.68076 34887 ft 476 kts
2026-04-27 21:45 -39.44933 -64.67104 34887 ft 476 kts
2026-04-27 21:45 -39.38251 -64.66135 34886 ft 476 kts
2026-04-27 21:46 -39.31570 -64.65167 34887 ft 476 kts
2026-04-27 21:46 -39.24844 -64.64198 34887 ft 476 kts
2026-04-27 21:47 -39.18147 -64.63232 34887 ft 476 kts
2026-04-27 21:47 -39.11457 -64.62270 34893 ft 476 kts
2026-04-27 21:48 -39.04714 -64.61303 34901 ft 476 kts
2026-04-27 21:48 -38.98030 -64.60332 34914 ft 476 kts
2026-04-27 21:49 -38.91379 -64.59380 34940 ft 470 kts
2026-04-27 21:49 -38.84835 -64.58462 34970 ft 463 kts
2026-04-27 21:50 -38.78282 -64.57526 34988 ft 463 kts
2026-04-27 21:50 -38.71811 -64.56599 34994 ft 463 kts
2026-04-27 21:51 -38.65278 -64.55675 34996 ft 463 kts
2026-04-27 21:51 -38.58752 -64.54747 34996 ft 463 kts
2026-04-27 21:52 -38.52238 -64.53818 34996 ft 463 kts
2026-04-27 21:52 -38.45691 -64.52887 34997 ft 463 kts
2026-04-27 21:53 -38.39204 -64.51966 34996 ft 463 kts
2026-04-27 21:53 -38.32691 -64.51041 34997 ft 463 kts
2026-04-27 21:54 -38.26103 -64.50107 34997 ft 463 kts
2026-04-27 21:54 -38.19584 -64.49184 34996 ft 463 kts
2026-04-27 21:55 -38.13076 -64.48265 34997 ft 463 kts
2026-04-27 21:55 -38.06547 -64.47347 34996 ft 463 kts
2026-04-27 21:56 -37.96768 -64.45975 34997 ft 463 kts
2026-04-27 21:57 -37.90223 -64.45058 34997 ft 463 kts
2026-04-27 21:57 -37.83724 -64.44153 34996 ft 463 kts
2026-04-27 21:58 -37.77185 -64.43243 34996 ft 463 kts
2026-04-27 21:58 -37.70654 -64.42333 34996 ft 463 kts
2026-04-27 21:59 -37.64111 -64.41422 34996 ft 463 kts
2026-04-27 21:59 -37.57619 -64.40520 34996 ft 463 kts
2026-04-27 22:00 -37.51053 -64.39609 34996 ft 463 kts
2026-04-27 22:00 -37.44519 -64.38703 34997 ft 463 kts
2026-04-27 22:01 -37.38032 -64.37804 34997 ft 463 kts
2026-04-27 22:01 -37.31489 -64.36909 34997 ft 463 kts
2026-04-27 22:02 -37.24927 -64.36043 34996 ft 463 kts
2026-04-27 22:02 -37.18440 -64.35188 34997 ft 463 kts
2026-04-27 22:03 -37.11915 -64.34308 34996 ft 463 kts
2026-04-27 22:03 -37.05352 -64.33409 34997 ft 464 kts
2026-04-27 22:04 -36.98859 -64.32538 34998 ft 460 kts
2026-04-27 22:04 -36.92410 -64.31690 34997 ft 454 kts
2026-04-27 22:05 -36.86030 -64.30866 34996 ft 455 kts
2026-04-27 22:05 -36.79608 -64.30032 34996 ft 455 kts
2026-04-27 22:06 -36.73195 -64.29195 34996 ft 455 kts
2026-04-27 22:06 -36.66774 -64.28360 34996 ft 455 kts
2026-04-27 22:07 -36.60365 -64.27526 34996 ft 455 kts
2026-04-27 22:07 -36.53947 -64.26576 34996 ft 456 kts
2026-04-27 22:08 -36.47562 -64.25489 34996 ft 456 kts
2026-04-27 22:08 -36.41179 -64.24417 34996 ft 456 kts
2026-04-27 22:09 -36.34750 -64.23353 34996 ft 456 kts
2026-04-27 22:09 -36.28327 -64.22297 34996 ft 456 kts
2026-04-27 22:10 -36.21954 -64.21252 34996 ft 456 kts
2026-04-27 22:10 -36.15531 -64.20201 34996 ft 456 kts
2026-04-27 22:11 -36.09113 -64.19153 34996 ft 456 kts
2026-04-27 22:11 -36.02714 -64.18109 34996 ft 456 kts
2026-04-27 22:12 -35.96325 -64.17069 34996 ft 456 kts
2026-04-27 22:12 -35.89905 -64.16026 34996 ft 456 kts
2026-04-27 22:13 -35.83550 -64.14996 34996 ft 456 kts
2026-04-27 22:13 -35.77095 -64.13953 34996 ft 456 kts
2026-04-27 22:14 -35.70705 -64.12920 34996 ft 456 kts
2026-04-27 22:14 -35.64309 -64.11887 34996 ft 456 kts
2026-04-27 22:15 -35.57860 -64.10848 34996 ft 456 kts
2026-04-27 22:15 -35.51461 -64.09818 34996 ft 456 kts
2026-04-27 22:16 -35.45038 -64.08787 34997 ft 456 kts
2026-04-27 22:16 -35.38663 -64.07764 34982 ft 455 kts
2026-04-27 22:17 -35.32233 -64.06735 34975 ft 455 kts
2026-04-27 22:17 -35.25868 -64.05718 34972 ft 455 kts
2026-04-27 22:18 -35.19450 -64.04696 34972 ft 455 kts
2026-04-27 22:18 -35.13051 -64.03679 34972 ft 455 kts
2026-04-27 22:19 -35.06612 -64.02654 34972 ft 455 kts
2026-04-27 22:19 -35.00248 -64.01639 34972 ft 455 kts
2026-04-27 22:20 -34.93868 -64.00624 34972 ft 454 kts
2026-04-27 22:20 -34.87506 -63.99620 34972 ft 454 kts
2026-04-27 22:21 -34.81095 -63.98609 34976 ft 454 kts
2026-04-27 22:21 -34.74730 -63.97601 34991 ft 454 kts
2026-04-27 22:22 -34.68362 -63.96596 35009 ft 454 kts
2026-04-27 22:22 -34.61950 -63.95587 35020 ft 454 kts
2026-04-27 22:23 -34.55600 -63.94590 35024 ft 454 kts
2026-04-27 22:23 -34.49231 -63.93591 35025 ft 454 kts
2026-04-27 22:24 -34.42831 -63.92590 35025 ft 454 kts
2026-04-27 22:24 -34.36476 -63.91598 35025 ft 454 kts
2026-04-27 22:25 -34.30097 -63.90604 35025 ft 454 kts
2026-04-27 22:25 -34.23689 -63.89605 35025 ft 454 kts
2026-04-27 22:26 -34.17318 -63.88614 35025 ft 454 kts
2026-04-27 22:26 -34.10956 -63.87630 35025 ft 454 kts
2026-04-27 22:27 -34.04562 -63.86641 35025 ft 454 kts
2026-04-27 22:27 -33.98210 -63.85654 35025 ft 454 kts
2026-04-27 22:28 -33.91821 -63.84663 35025 ft 454 kts
2026-04-27 22:28 -33.85462 -63.83682 35025 ft 454 kts
2026-04-27 22:29 -33.79106 -63.82704 35025 ft 454 kts
2026-04-27 22:29 -33.72704 -63.81720 35025 ft 454 kts
2026-04-27 22:30 -33.66338 -63.80742 35025 ft 454 kts
2026-04-27 22:30 -33.60019 -63.79773 35025 ft 454 kts
2026-04-27 22:31 -33.53649 -63.78797 35025 ft 454 kts
2026-04-27 22:31 -33.47279 -63.77822 35025 ft 453 kts
2026-04-27 22:32 -33.40919 -63.76851 35025 ft 453 kts
2026-04-27 22:32 -33.34545 -63.75880 35025 ft 453 kts
2026-04-27 22:33 -33.28185 -63.74912 35025 ft 453 kts
2026-04-27 22:33 -33.21856 -63.73950 35025 ft 453 kts
2026-04-27 22:34 -33.15460 -63.72976 35025 ft 453 kts
2026-04-27 22:34 -33.09114 -63.72010 35025 ft 453 kts
2026-04-27 22:35 -33.02788 -63.71041 35026 ft 450 kts
2026-04-27 22:35 -32.96492 -63.70083 35026 ft 445 kts
2026-04-27 22:36 -32.90246 -63.69147 35025 ft 444 kts 360°
2026-04-27 22:36 -32.84035 -63.68220 34857 ft 445 kts
2026-04-27 22:36 -32.80875 -63.67747 34300 ft 445 kts
2026-04-27 22:37 -32.77795 -63.67285 33633 ft 446 kts
2026-04-27 22:37 -32.74639 -63.66812 32930 ft 446 kts
2026-04-27 22:37 -32.71511 -63.66344 32219 ft 446 kts
2026-04-27 22:37 -32.68356 -63.65871 31482 ft 446 kts
2026-04-27 22:38 -32.65216 -63.65402 30744 ft 446 kts
2026-04-27 22:38 -32.62106 -63.64935 29997 ft 445 kts
2026-04-27 22:38 -32.58987 -63.64468 29224 ft 445 kts
2026-04-27 22:38 -32.55839 -63.63997 28422 ft 445 kts
2026-04-27 22:39 -32.52732 -63.63532 27748 ft 441 kts
2026-04-27 22:39 -32.49645 -63.63066 27279 ft 433 kts
2026-04-27 22:39 -32.46629 -63.62612 26783 ft 427 kts
2026-04-27 22:39 -32.43634 -63.62163 26281 ft 421 kts
2026-04-27 22:40 -32.40690 -63.61723 25783 ft 416 kts
2026-04-27 22:40 -32.37729 -63.61282 25279 ft 411 kts
2026-04-27 22:40 -32.34850 -63.60854 24787 ft 406 kts
2026-04-27 22:40 -32.32002 -63.60430 24298 ft 402 kts
2026-04-27 22:41 -32.29185 -63.60011 23812 ft 398 kts
2026-04-27 22:41 -32.26395 -63.59596 23332 ft 395 kts
2026-04-27 22:41 -32.23632 -63.59186 22853 ft 391 kts
2026-04-27 22:41 -32.20889 -63.58778 22380 ft 387 kts
2026-04-27 22:42 -32.18162 -63.58374 21908 ft 384 kts
2026-04-27 22:42 -32.15463 -63.57973 21442 ft 381 kts
2026-04-27 22:42 -32.12794 -63.57578 20976 ft 377 kts
2026-04-27 22:42 -32.10147 -63.57185 20511 ft 374 kts
2026-04-27 22:43 -32.07513 -63.56852 20042 ft 369 kts 359°
2026-04-27 22:43 -32.04918 -63.56835 19575 ft 363 kts 353°
2026-04-27 22:43 -32.02362 -63.57165 19088 ft 358 kts 347°
2026-04-27 22:43 -31.99879 -63.57738 18588 ft 356 kts 345°
2026-04-27 22:44 -31.97430 -63.58349 18095 ft 354 kts 345°
2026-04-27 22:44 -31.94991 -63.58961 17606 ft 351 kts 345°
2026-04-27 22:44 -31.92537 -63.59575 17111 ft 349 kts 345°
2026-04-27 22:44 -31.90116 -63.60178 16622 ft 347 kts 345°
2026-04-27 22:45 -31.87698 -63.60777 16133 ft 346 kts 345°
2026-04-27 22:45 -31.85289 -63.61370 15644 ft 344 kts 346°
2026-04-27 22:45 -31.82914 -63.61955 15157 ft 342 kts 346°
2026-04-27 22:45 -31.80514 -63.62546 14671 ft 340 kts 346°
2026-04-27 22:46 -31.78190 -63.63119 14197 ft 338 kts 346°
2026-04-27 22:46 -31.75827 -63.63702 13716 ft 336 kts 346°
2026-04-27 22:46 -31.73512 -63.64273 13242 ft 334 kts 346°
2026-04-27 22:46 -31.71183 -63.64847 12766 ft 332 kts 346°
2026-04-27 22:47 -31.68893 -63.65411 12295 ft 330 kts 346°
2026-04-27 22:47 -31.66582 -63.65980 11821 ft 328 kts 346°
2026-04-27 22:47 -31.64328 -63.66536 11356 ft 326 kts 347°
2026-04-27 22:47 -31.62085 -63.67089 10889 ft 322 kts 347°
2026-04-27 22:48 -31.59856 -63.67638 10477 ft 316 kts 347°
2026-04-27 22:48 -31.57688 -63.68169 10392 ft 300 kts 347°
2026-04-27 22:48 -31.55647 -63.68669 10246 ft 287 kts 347°
2026-04-27 22:48 -31.53685 -63.69150 10140 ft 274 kts 347°
2026-04-27 22:49 -31.51830 -63.69605 10057 ft 261 kts 347°
2026-04-27 22:49 -31.50048 -63.70042 9880 ft 253 kts 347°
2026-04-27 22:49 -31.48284 -63.70477 9533 ft 252 kts 347°
2026-04-27 22:49 -31.46540 -63.70919 9205 ft 250 kts 344°
2026-04-27 22:50 -31.44964 -63.71862 8860 ft 249 kts 321°
2026-04-27 22:50 -31.43873 -63.73491 8527 ft 251 kts 297°
2026-04-27 22:50 -31.43437 -63.75500 8200 ft 254 kts 276°
2026-04-27 22:50 -31.43405 -63.77589 7896 ft 252 kts 273°
2026-04-27 22:51 -31.43423 -63.79697 7591 ft 251 kts 272°
2026-04-27 22:51 -31.43443 -63.81764 7294 ft 249 kts 272°
2026-04-27 22:51 -31.43458 -63.83836 6999 ft 246 kts 272°
2026-04-27 22:51 -31.43467 -63.85862 6712 ft 244 kts 272°
2026-04-27 22:52 -31.43473 -63.87890 6426 ft 242 kts 272°
2026-04-27 22:52 -31.43477 -63.89902 6143 ft 240 kts 272°
2026-04-27 22:52 -31.43480 -63.91891 5865 ft 238 kts 272°
2026-04-27 22:52 -31.43483 -63.93868 5590 ft 236 kts 272°
2026-04-27 22:53 -31.43486 -63.95844 5313 ft 235 kts 272°
2026-04-27 22:53 -31.43488 -63.97773 5046 ft 233 kts 272°
2026-04-27 22:53 -31.43490 -63.99685 4782 ft 231 kts 272°
2026-04-27 22:53 -31.43492 -64.01609 4697 ft 220 kts 272°
2026-04-27 22:54 -31.43494 -64.03419 4678 ft 219 kts 272°